Powrót do katalogu

FENGYUN 1C DEB

AktywnySSO
NORAD 31882·DEBRIS·🇨🇳 China

Wystrzelony May 10, 1999 z Taiyuan Satellite Launch Center

Loading…

Następne Przeloty (najbliższe 24 godziny)

TLE

ŚwieżeSource: Space-Track

Epoka: Sep 14, 2026, 12:53 UTC

1 31882U 99025CKH 26257.53734620  .00000679  00000-0  38175-3 0  9998
2 31882  98.9209 184.2038 0035560 161.8030 198.4423 14.13541410625328

Śledź FENGYUN 1C DEB w czasie rzeczywistym z AllMySat

Download on the App Store